Погода Докшицы

Погода Докшицы : погода сейчас, прогноз погоды и архив. Всё, что Вы хотите узнать о погоде Докшицы!

Поиск расширенной информации на нашем сайте:

Другие новости

Новости СМИ2

Главная страница сайта

Новости сайта

03.07.2017

Напоминаем, что на нашем специализированном сайте Метеоцентр.Азия вы можете получить высокодетализированные автоматические прогнозы погоды по пунктам России, СНГ и мира в авиационном формате (включающие направление и скорость ветра, видимость, явления погоды, количество и форму облачности, нижнюю и верхнюю границу облачности).

Рекомендуем: Изучение английского на www.newmetod.ru

Погода Докшицы - сегодня

Время (UTC), дата Ветер
(°,м/с) 
Видим.   Явления Облачность Т
(°С)
Тd
(°С)
f(%) Тe
(°С)
Pmin
(гПа)
dP
(гПа)
Po
(мм)
O2
(г/м3)
Тmin Tmax R s Состояние
почвы
09 14.02.18 050 (СВ) 12000 м    5/0 средняя 
[Ac und]
-6.4 -10.3 74 -6  1024.6  1.4  750  310           
12 14.02.18 070 (В) 11000 м    ясно 
-4.2 -9.7 65 -5  1024.4  750  308           
15 14.02.18 040 (СВ) 11000 м    ясно 
-5.1 -10.4 66 -5  1025.2  0.7  750  309           
18 14.02.18 060 (СВ) 12000 м    ясно 
-9.7 -12.5 80 -10  1027.2  1.5  751  315    -3.9    13   
06 15.02.18 130 (ЮВ) 4300 м  дымка  9/9 240 м 
[Sc]
-10 -11.3 90 -10  1029.4  0.8  753  316  -17.9      13  равномерный
сухой снег
100% 
12 15.02.18 080 (В) 12000 м  {снег}  9/0 средняя 
[Ac und]
-4.9 -8.9 74 -4  1029.2  -0.6  753  310           
15 15.02.18 130 (ЮВ) 13000 м    9/0 средняя 
[Ac und]
-5.4 -8.3 80 -9  1029  -0.2  753  310      0.0     
18 15.02.18 120 (ЮВ) 11000 м    9/0 средняя 
[Ac As]
-6.5 -8.6 85 -8  1029.1  753  312    -4.7    12   
06 16.02.18 140 (ЮВ) 4400 м  дымка  9/8 360 м средняя 
[Frnb|Ac As]
-6.1 -7.3 91 -9  1025.9  -1  751  310  -7.1      12  равномерный
сухой снег
100% 
09 16.02.18 150 (ЮВ) 4200 м  слаб. снег  10/8 330 м средняя 
[Frnb|As op]
-4.3 -5.9 89 -7  1024.9  -0.8  750  308           
12 16.02.18 160 (Ю) 6000 м  дымка{снег}  9/8 330 м средняя 
[Frnb|Ac As]
-2.6 -4.9 84 -5  1023.4  -1.3  749  305           
18 16.02.18 170 (Ю) 4900 м  дымка  9/9 300 м 
[Sc]
-2.5 -3.9 90 -5  1021.9  -0.4  748  305    -2  0.2  12   
06 17.02.18 200 (Ю) 4700 м  дымка  9/9 300 м 
[Sc]
-1.9 -2.8 94 -5  1019.3  -0.5  746  303  -2.5      12  равномерный
сухой снег
100% 
12 17.02.18 130 (ЮВ) 3500 м  снег  10/10 240 м 
[Frnb|Ns]
-0.3 -1 95 -2  1016.7  -1.4  744  300           
18 17.02.18 220 (ЮЗ) 5000 м  дымка{снег}  9/9 240 м 
[Sc]
-0.6 -0.9 98 -1  1015.6  -0.1  744  300    +0  14   
06 18.02.18 330 (СЗ) 3200 м  дымка  9/9 210 м 
[Sc]
-2.5 -3.4 94 -5  1018.5  746  304  -2.8    15  равномерный
сухой снег
100% 
12 18.02.18 310 (СЗ) 7000 м  дымка{снег}  9/8 270 м средняя 
[Frnb|Ac As]
-3.8 -5.4 89 -7  1020.8  1.2  747  306           
18 18.02.18 290 (З) 10 км  дымка{снег}  9/8 330 м средняя 
[Frnb|Ac As]
-5 -6.6 89 -8  1022.8  749  308    -2.3  0.6  16   
06 19.02.18 290 (З) 12000 м    8/0 средняя 
[Ac und]
-11.5 -13 89 -13  1023  0.4  748  316  -11.5      16  равномерный
сухой снег
100% 
09 19.02.18 300 (СЗ) 13000 м    4/0 средняя 
[Ac und]
-6.4 -9.7 77 -8  1023.2  0.6  749  310           
12 19.02.18 320 (СЗ) 8000 м  слаб. снег  10/0 средняя 
[As op]
-4.4 -7.3 80 -7  1023.1  0.1  749  307           
18 19.02.18 320 (СЗ) 16000 м  {снег}  9/0 средняя 
[Ac As]
-4.9 -6.6 88 -6  1023.9  0.6  749  308    -4.2  0.1  16   
06 20.02.18 020 (С) 11000 м    9/0 средняя 
[Ac As]
-7.6 -9.2 88 -9  1025.1  0.3  750  312  -7.6      16  равномерный
сухой снег
100% 
09 20.02.18 290 (З) 14000 м    9/0 средняя 
[Ac As]
-6.8 -9.5 81 -8  1025.5  0.4  750  311           
12 20.02.18 340 (С) 15000 м    9/9 870 м 
[Sc]
-5.7 -8.8 79 -8  1024.9  -0.4  750  310           
Время (UTC), дата Ветер
(°,м/с) 
Видим.   Явления Облачность Т
(°С)
Тd
(°С)
f(%) Тe
(°С)
Pmin
(гПа)
dP
(гПа)
Po
(мм)
O2
(г/м3)
Тmin Tmax R s Состояние
почвы

Для получения пояснительной информации подведите курсор к названию столбца.

ПОГОДА Докшицы - архив

Всё, что Вы хотите узнать о погоде Докшицы - удобно и подробно!

Выберите нужную дату (начиная с 1 января 2015* года) и нажмите кнопку "Найти".
Будут отображены архивные сводки погоды по пункту Докшицы, начиная с указанной даты.


Отображать данные в формате CSV (для использования в таблицах Excel)


Внимание! Наш архив погоды предназначен исключительно для личного некоммерческого использования в познавательных целях. Если Вам необходимы официальные справки о состоянии погоды (для производственных, юридических, коммерческих и т.п. целей), обращайтесь в органы Росгидромета.

*Примечание: данная дата относится к архиву по метеостанциям СССР (Россия, СНГ, Балтия).
Архив по метеостанциям Зарубежной Европы и Азии (кроме Китая) хранится 10 дней, по другим регионам земного шара (Китай, Африка, Америка, Австралия, Океания) - 1 день.

Докшицы - район местоположения метеостанции


Название, широта, долгота, высота метеостанции:
Докшицы 54.9°ш. 27.8°д. 193 м над ур. моря [Беларусь]

Дополнительная информация

В oтличие oт бoльшинства пoгoдных сайтoв мы публикуем пoдрoбную метеoинфoрмацию в детальнoм прoфессиoнальнoм фoрмате.

Характеристики температуры и влажнoсти вoздуха измеряются на высoте 2 м в тени вдали oт зданий и деревьев.
Скoрoсть ветра измеряется на высoте 10 м (на урoвне рoста челoвека скoрoсть ветра ниже в 1.5-2 раза). Если метеoстанция нахoдится в гoрoде или в лесу, тo скoрoсть ветра занижена на 2-4 м/с пo сравнению с oткрытым местoм. Скoрoсть ветра над акватoриями крупных рек и oзёр, а также на вершинах хoлмoв на 2-5 м/с выше, чем в oбычных услoвиях.
Атмoсфернoе давление в разных тoчках местнoсти мoжет значительнo oтличаться oт давления на метеoстанции, в зависимoсти oт услoвий рельефа (при пoдъёме на 10 м давление пoнижается примернo на 1 мм рт.ст.).